Terminal Aerodrome Forecast
Issued by NWS

Home | Current Version | Previous Version | Text Only | Print | Product List | Glossary On
Versions: 1 2 3 4 5 6 7 8 9 10 11 12
686
FTUS44 KLZK 132323
TAFLLQ
TAF
KLLQ 132323Z 1400/1424 07008KT P6SM SCT250
     FM140600 11005KT P6SM SCT025 BKN060
      TEMPO 1410/1414 BKN025
     FM141400 15008KT P6SM SCT025 BKN050
     FM142100 17008KT P6SM VCSH OVC025=

USA.gov is the U.S. government's official web portal to all federal, state and local government web resources and services.